Theta_e
272 271 270 270 270 270 270 270 271 271 272 272 272 272 272 272 272 272 272 272 271 272 272 272 274 277 281 286 291 293 293 294 288 290 295 298 298 316 313 318 312 317 312
271 270 269 269 269 269 269 269 271 270 271 271 271 271 270 270 271 270 270 271 271 270 271 272 273 279 282 284 291 291 291 293 292 289 294 296 295 313 313 316 314 316 314
269 268 268 268 268 268 268 269 269 269 269 269 269 268 269 269 269 270 270 270 270 270 271 271 272 276 279 282 290 289 291 293 294 291 291 295 295 313 311 311 313 313 314
268 267 267 267 268 267 268 268 268 268 267 267 267 267 268 268 269 269 270 270 270 271 272 272 272 275 278 281 283 288 289 288 289 290 290 293 295 311 311 308 307 310 309
267 266 266 267 267 267 267 267 267 267 266 266 266 266 266 267 268 268 270 270 270 270 271 272 273 277 279 281 283 286 288 287 287 287 288 290 299 308 306 307 306 307 307
265 266 266 266 266 265 265 265 265 265 265 265 265 265 266 267 271 273 274 272 273 273 273 273 274 276 279 282 284 287 289 286 285 285 285 287 299 308 307 306 305 303 299
266 265 264 264 263 263 263 263 263 262 263 264 264 264 264 265 270 273 274 274 273 273 273 273 274 276 278 280 283 286 288 291 290 287 285 286 305 308 307 305 303 302 302
265 263 263 263 261 261 261 260 261 262 263 263 262 263 264 265 270 272 274 273 274 274 274 274 274 275 277 279 282 283 285 286 287 288 289 290 294 310 308 307 305 303 304
262 262 262 261 259 259 257 259 260 261 261 260 263 262 262 263 269 272 274 273 274 275 276 274 274 275 277 280 280 280 282 284 288 289 290 292 294 306 308 306 299 298 297
261 261 261 260 257 257 258 258 260 259 261 262 262 262 263 263 269 272 273 272 273 273 276 275 276 275 278 281 281 281 280 282 284 285 286 299 303 304 303 306 303 299 298
260 259 259 258 257 257 258 259 258 259 261 260 262 264 265 267 267 271 274 272 271 271 273 276 275 278 280 281 284 282 282 286 286 285 285 300 302 303 304 304 305 302 298
258 257 255 254 255 258 256 257 258 259 259 260 262 264 265 266 269 271 272 273 274 272 273 276 277 280 281 284 284 286 287 286 285 284 285 297 300 301 302 303 304 304 304
253 252 250 254 256 257 256 257 258 259 260 261 263 263 263 266 267 270 271 274 274 272 274 275 278 279 281 283 286 288 286 286 285 284 285 296 300 302 303 301 302 301 301
251 255 257 256 255 257 258 259 258 259 260 263 262 262 262 265 265 268 269 269 271 271 272 272 274 277 280 282 284 287 286 286 285 285 288 297 299 299 298 299 299 299 296
254 256 255 254 254 256 258 257 260 262 265 264 263 263 262 263 266 270 269 268 268 271 272 272 272 275 276 282 285 285 286 286 286 287 292 295 295 296 296 297 297 295 294
254 254 254 254 254 256 256 256 262 265 266 267 268 267 266 269 270 270 270 269 270 270 268 269 272 273 275 281 284 285 285 285 287 290 294 294 294 295 294 294 296 295 294
249 252 252 253 253 253 253 254 253 257 263 264 265 267 269 268 269 269 268 267 268 265 261 262 263 265 267 270 272 279 285 287 290 293 293 294 294 294 292 293 293 294 294
243 251 249 250 250 250 251 252 252 252 252 254 259 264 267 267 267 267 266 262 259 261 260 262 262 263 266 267 268 269 271 282 291 293 293 293 292 292 291 292 292 293 293
248 247 246 247 247 249 250 250 251 251 252 253 254 258 262 264 265 264 264 257 257 258 259 261 263 263 264 266 266 267 268 269 290 292 292 291 291 291 291 292 292 292 292
244 251 248 244 246 247 248 249 250 250 251 251 253 252 260 256 255 256 257 257 257 258 260 261 263 264 264 266 266 265 266 268 285 291 290 291 291 292 291 291 291 291 291
244 244 248 244 243 244 244 246 248 248 249 250 252 254 265 255 255 255 256 256 256 258 260 260 264 264 265 266 266 264 265 266 269 280 289 290 290 290 291 292 291 291 291
245 242 242 241 245 247 245 246 246 247 248 249 250 252 260 254 254 255 255 256 257 259 260 261 262 264 265 265 266 265 264 264 266 268 271 289 289 290 290 290 290 291 290
247 247 245 244 244 246 246 244 246 247 248 247 249 251 252 253 254 254 255 256 257 258 260 262 262 264 265 266 267 267 264 264 265 267 269 276 289 289 289 289 289 289 289
247 246 246 243 243 243 243 243 246 246 247 247 247 249 250 251 253 253 254 255 257 258 260 261 262 262 266 266 266 268 268 266 266 267 269 273 286 288 289 289 289 289 289
243 245 244 242 238 240 241 242 245 241 243 247 247 248 249 250 252 253 254 254 256 257 259 260 262 263 265 266 266 266 269 266 265 266 267 268 270 273 279 286 287 288 289
244 244 242 242 241 239 239 241 240 243 242 246 246 247 249 249 250 252 253 253 254 256 258 260 262 262 263 266 266 267 269 270 266 265 266 266 266 267 269 271 274 280 284
Wind_Speed
3 5 5 6 7 9 10 11 12 13 15 16 17 17 17 17 16 16 17 19 19 17 17 19 20 20 15 16 11 11 11 9 14 11 16 16 18 17 19 19 20 21 19
5 5 6 7 8 9 10 12 12 14 15 16 17 18 18 18 17 18 19 18 18 19 18 18 19 14 18 17 11 13 12 13 12 18 12 12 13 18 22 24 21 18 21
4 4 6 8 8 10 11 12 13 15 15 16 17 17 18 19 18 18 19 19 19 19 19 19 18 19 17 13 14 9 11 12 13 11 12 10 13 15 16 18 22 20 19
2 3 6 8 9 10 12 13 13 14 16 16 16 18 18 19 19 20 20 19 18 17 18 18 18 20 19 16 13 12 10 10 10 8 10 14 15 17 15 17 18 18 17
3 5 6 8 9 10 12 13 13 13 14 17 19 17 17 17 14 18 20 19 19 19 18 18 19 21 29 26 12 11 10 8 8 10 13 11 17 18 20 15 15 17 19
4 6 8 10 11 12 12 13 14 15 14 16 17 18 18 14 28 31 27 18 19 19 17 17 17 22 24 32 33 29 18 11 12 10 12 14 28 21 17 19 19 18 15
4 6 8 9 11 12 13 13 14 15 15 16 17 18 19 19 31 32 30 18 18 18 18 18 16 14 20 16 22 28 26 21 22 12 16 21 19 23 22 24 23 22 19
4 5 7 9 10 12 13 13 14 13 15 16 17 18 18 17 32 32 31 19 18 20 19 20 18 19 18 17 14 15 15 13 13 12 17 19 24 24 26 27 28 24 17
5 7 8 9 10 12 12 13 13 14 15 15 15 18 18 20 32 32 27 17 16 22 18 17 16 19 25 29 18 16 17 17 16 25 31 39 45 34 28 20 19 21 16
5 7 9 9 8 11 13 14 14 13 15 14 17 16 19 21 28 31 27 12 15 14 13 16 22 21 30 28 19 16 17 16 13 17 20 23 29 29 36 28 23 23 18
3 5 7 8 9 9 12 13 12 14 14 15 16 15 16 18 20 31 29 15 13 14 13 13 10 25 27 31 30 16 16 11 14 14 16 15 19 21 19 22 27 24 21
4 5 6 7 7 8 11 13 11 12 14 15 16 14 12 17 22 25 32 27 24 14 15 11 10 22 25 26 21 23 27 24 12 11 11 13 16 17 19 21 24 22 23
4 3 4 7 7 9 10 12 10 10 11 13 13 14 15 14 14 28 30 29 26 17 12 18 26 25 26 24 27 28 21 12 9 9 10 11 14 16 20 21 21 19 18
3 4 4 6 9 9 8 8 9 10 11 12 13 14 16 15 16 14 14 14 19 17 19 13 17 22 24 20 14 12 7 7 8 9 12 11 12 13 12 14 14 16 12
3 4 4 4 5 9 8 7 8 9 14 13 12 13 16 17 17 28 27 16 13 14 18 9 9 8 8 8 8 9 7 7 8 10 13 11 11 12 12 13 14 12 13
5 4 3 4 5 6 6 10 14 18 22 22 25 22 14 28 34 34 34 27 26 27 9 5 6 7 7 8 6 7 7 9 9 10 9 12 13 14 13 12 13 15 15
5 3 3 5 5 6 7 7 9 14 22 22 25 29 33 32 33 34 33 28 27 22 12 11 10 10 10 11 9 9 6 8 10 9 9 12 12 12 15 13 13 13 14
4 3 1 3 4 5 6 6 6 8 11 13 19 25 31 33 33 33 34 22 16 18 13 11 12 12 11 11 10 9 9 11 9 8 10 11 13 14 15 16 14 16 14
3 2 1 2 3 5 5 5 5 7 8 10 12 19 20 31 30 30 32 14 14 13 14 13 12 12 12 11 10 10 10 10 9 8 10 10 12 13 15 14 15 20 17
3 3 2 2 3 4 4 5 6 7 8 9 10 13 14 16 16 16 15 14 14 13 14 13 14 13 13 12 12 11 10 11 9 8 9 11 11 13 14 15 15 16 14
3 2 2 2 2 2 2 4 4 5 6 8 9 12 28 11 13 13 14 14 14 14 15 14 15 14 14 13 13 12 11 11 11 9 8 10 11 11 12 14 14 14 14
3 3 1 1 2 3 3 3 4 4 5 7 9 10 25 10 11 12 13 14 14 13 13 13 14 14 15 15 14 14 13 12 11 10 10 6 10 11 10 12 13 13 14
4 3 1 1 1 3 2 3 4 5 6 6 7 9 10 10 11 12 13 13 13 13 14 14 14 15 16 15 15 13 13 13 11 9 9 8 8 10 10 10 11 11 13
4 3 3 1 2 2 2 3 4 5 6 6 6 8 9 10 10 12 12 12 13 13 13 13 15 20 19 19 17 16 15 15 11 10 12 9 1 8 9 10 11 13 12
4 4 2 2 2 1 2 2 4 3 4 6 7 7 8 9 10 11 12 12 12 13 15 15 14 21 22 29 28 29 26 26 22 18 12 13 13 13 6 4 7 8 10
3 4 3 3 2 0 1 2 2 3 4 5 6 7 7 8 9 9 11 12 12 13 16 13 18 24 23 21 27 32 30 29 24 26 15 14 14 13 10 10 9 3 6
Wind_Direction
278 269 271 286 292 288 286 289 289 290 290 290 290 289 288 286 283 278 272 273 269 268 268 265 263 263 263 273 224 227 228 234 239 256 248 244 291 181 174 167 152 157 151
252 269 293 293 293 291 289 291 295 293 290 291 292 293 293 289 286 280 277 274 271 269 268 267 271 271 264 280 236 228 225 235 241 251 249 261 268 192 183 170 166 163 158
250 275 296 295 297 294 298 296 296 294 292 295 296 292 292 289 285 279 275 272 269 268 267 268 266 267 263 265 258 234 245 230 239 241 256 267 260 191 188 158 162 161 162
268 297 292 302 305 298 299 298 296 297 299 298 294 292 290 289 284 283 282 278 274 269 267 262 265 260 261 262 275 237 248 255 273 235 248 253 238 210 174 163 159 153 155
324 309 302 307 301 301 303 297 301 302 300 297 297 295 293 286 283 282 276 273 268 264 261 261 262 264 261 258 258 270 214 236 252 258 252 279 236 195 171 162 154 150 158
328 319 317 310 312 306 305 311 312 307 304 301 298 297 298 291 292 292 288 278 275 273 271 263 261 264 259 257 259 258 249 214 232 242 258 255 249 172 164 159 155 153 147
320 310 308 312 309 313 316 316 313 309 306 304 304 304 299 295 295 292 289 280 272 265 265 267 264 258 266 255 257 262 279 234 233 252 261 247 224 165 164 160 158 155 164
324 310 312 316 311 319 317 318 310 309 310 310 305 301 305 303 302 300 294 283 274 270 254 254 257 261 257 260 257 256 250 245 245 256 247 262 267 173 166 167 166 156 154
336 326 320 323 318 320 314 313 314 311 309 301 301 310 307 301 303 305 300 288 287 285 252 246 245 253 254 256 255 258 267 265 269 270 272 264 252 177 168 155 153 151 159
337 329 332 326 318 310 310 309 311 302 303 305 305 302 301 296 299 313 308 293 293 311 280 254 244 246 254 253 243 243 250 259 280 288 286 248 194 164 168 164 160 160 159
322 328 330 324 312 301 303 303 304 306 308 302 304 309 310 307 311 312 311 317 306 298 289 287 241 248 254 241 245 240 253 272 262 267 278 213 173 166 166 162 166 163 163
4 342 331 308 305 310 304 298 307 309 309 312 315 326 320 314 310 315 314 311 303 292 289 302 263 257 261 254 248 246 245 244 249 263 278 219 168 173 165 165 169 171 179
12 341 302 304 321 312 304 305 317 315 317 317 328 328 326 318 324 313 308 314 316 305 296 290 296 297 302 261 258 253 231 226 234 246 265 210 168 170 166 160 169 171 169
20 15 339 341 324 317 309 314 315 321 322 329 334 331 325 329 320 315 322 315 311 306 299 290 282 283 284 271 256 242 207 215 224 242 258 197 161 165 160 155 172 162 157
85 37 355 333 318 309 317 312 324 323 332 337 336 332 322 331 326 337 335 329 314 302 304 272 276 264 263 246 241 220 214 221 232 232 240 181 161 162 163 161 165 155 159
73 36 353 330 324 320 317 316 333 345 346 346 346 348 329 340 341 346 348 351 350 350 338 321 318 331 320 300 229 224 224 224 232 236 200 176 164 168 158 163 161 169 161
90 43 355 338 324 325 318 320 331 335 346 349 348 351 351 352 354 357 2 4 6 13 15 6 360 348 342 336 329 321 243 228 233 225 180 177 165 162 160 166 164 168 167
111 67 35 312 314 307 306 321 328 340 337 335 341 348 358 359 2 4 9 1 6 13 6 3 356 349 342 335 322 319 314 301 236 204 177 177 170 165 166 171 168 171 166
101 76 9 302 283 294 304 320 340 342 340 333 331 344 356 356 1 6 7 13 3 3 357 355 358 350 339 336 328 324 318 304 254 191 178 176 173 169 171 171 171 174 167
91 58 10 314 318 323 344 341 358 350 348 342 341 338 352 350 358 359 359 359 1 0 359 349 356 353 344 344 341 336 331 328 289 184 179 174 175 178 174 170 175 174 180
107 96 26 11 337 312 328 337 336 340 347 338 333 331 6 355 349 353 353 356 353 353 354 351 356 356 354 347 351 351 343 333 325 328 178 179 174 179 178 174 174 180 175
122 118 88 51 311 352 356 343 339 341 336 340 334 337 353 355 352 352 349 352 350 347 350 356 352 0 356 354 355 358 346 341 332 338 335 203 176 176 174 176 180 176 176
124 122 92 30 5 352 2 354 357 354 341 334 340 340 343 348 349 349 345 345 347 348 350 353 357 357 3 3 358 5 357 343 329 327 320 299 190 181 175 177 178 180 178
134 149 148 125 40 36 0 9 356 359 345 335 342 340 340 338 344 344 343 342 343 346 352 353 357 351 4 7 5 4 11 359 350 343 345 339 153 178 182 182 184 183 184
136 130 115 122 95 42 12 10 14 352 343 338 340 340 337 337 340 342 342 341 341 344 348 351 359 356 357 8 8 8 12 14 15 14 13 18 30 30 26 155 173 177 176
144 150 144 137 129 204 65 30 1 347 348 343 335 331 332 334 333 337 341 340 340 340 344 348 352 356 354 14 10 12 9 20 21 23 26 32 36 31 29 32 39 75 156